Powrót do katalogu

STARLINK-6112

AktywnyŁącznośćVLEO
NORAD 57136·PAYLOAD·🇺🇸 United States

Wystrzelony Jun 23, 2023 z Cape Canaveral Space Force Station

Loading…

Następne Przeloty (najbliższe 24 godziny)

TLE

ŚwieżeSource: CelesTrak SupGP

Epoka: Sep 15, 2026, 02:51 UTC

1 57136C 23090AM  26258.11923611 -.00013123  00000+0 -47537-3 0  2581
2 57136  43.0034 273.3270 0001223 294.7348 178.6266 15.27581562    16

Śledź STARLINK-6112 w czasie rzeczywistym z AllMySat

Download on the App Store